Time,TemperatureF,DewpointF,PressureIn,WindDirection,WindDirectionDegrees,WindSpeedMPH,WindSpeedGustMPH,Humidity,HourlyPrecipIn,Conditions,Clouds,dailyrainin,SoftwareType,DateUTC
2013-09-10 00:01:00,56.8,50.0,30.15,East,84,1.0,2.0,78,0.00,,,0.00,WeatherCatV1.15B25,2013-09-10 04:01:00,
2013-09-10 00:02:00,56.7,49.9,30.15,NNW,328,0.0,2.0,78,0.00,,,0.00,WeatherCatV1.15B25,2013-09-10 04:02:00,
2013-09-10 00:04:00,56.7,49.9,30.15,NNW,329,0.0,0.0,78,0.00,,,0.00,WeatherCatV1.15B25,2013-09-10 04:04:00,
2013-09-10 00:08:00,56.7,49.9,30.15,ENE,68,0.0,0.0,78,0.00,,,0.00,WeatherCatV1.15B25,2013-09-10 04:08:00,
2013-09-10 00:13:00,56.5,50.1,30.16,SE,138,0.0,0.0,79,0.00,,,0.00,WeatherCatV1.15B25,2013-09-10 04:13:00,
2013-09-10 00:18:00,56.4,50.0,30.15,ESE,107,1.0,2.0,79,0.00,,,0.00,WeatherCatV1.15B25,2013-09-10 04:18:00,
2013-09-10 00:23:00,56.3,49.9,30.15,ENE,72,0.0,1.0,79,0.00,,,0.00,WeatherCatV1.15B25,2013-09-10 04:23:00,
2013-09-10 00:28:00,56.2,50.1,30.15,ENE,63,0.0,1.0,80,0.00,,,0.00,WeatherCatV1.15B25,2013-09-10 04:28:00,
2013-09-10 00:33:00,56.1,50.0,30.15,SE,127,0.0,1.0,80,0.00,,,0.00,WeatherCatV1.15B25,2013-09-10 04:33:00,
2013-09-10 00:38:00,56.0,49.9,30.15,SE,127,0.0,0.0,80,0.00,,,0.00,WeatherCatV1.15B25,2013-09-10 04:38:00,
2013-09-10 00:43:00,55.9,50.2,30.15,SE,128,0.0,1.0,81,0.00,,,0.00,WeatherCatV1.15B25,2013-09-10 04:43:00,
2013-09-10 00:48:00,55.7,50.0,30.15,SE,128,0.0,0.0,81,0.00,,,0.00,WeatherCatV1.15B25,2013-09-10 04:48:00,
2013-09-10 00:53:00,55.6,49.9,30.15,SE,128,0.0,0.0,81,0.00,,,0.00,WeatherCatV1.15B25,2013-09-10 04:53:00,
2013-09-10 00:58:00,55.5,50.1,30.15,SE,128,0.0,0.0,82,0.00,,,0.00,WeatherCatV1.15B25,2013-09-10 04:58:00,
2013-09-10 01:03:00,55.4,50.0,30.14,SE,128,0.0,1.0,82,0.00,,,0.00,WeatherCatV1.15B25,2013-09-10 05:03:00,
2013-09-10 01:08:00,55.3,50.2,30.14,SE,129,0.0,0.0,83,0.00,,,0.00,WeatherCatV1.15B25,2013-09-10 05:08:00,
2013-09-10 01:13:00,55.2,50.1,30.14,SE,129,0.0,0.0,83,0.00,,,0.00,WeatherCatV1.15B25,2013-09-10 05:13:00,
2013-09-10 01:18:00,55.0,49.9,30.14,SE,129,0.0,0.0,83,0.00,,,0.00,WeatherCatV1.15B25,2013-09-10 05:18:00,
2013-09-10 01:23:00,54.8,50.1,30.15,SE,129,0.0,1.0,84,0.00,,,0.00,WeatherCatV1.15B25,2013-09-10 05:23:00,
2013-09-10 01:28:00,54.6,49.9,30.15,SE,128,0.0,0.0,84,0.00,,,0.00,WeatherCatV1.15B25,2013-09-10 05:28:00,
2013-09-10 01:33:00,54.5,49.8,30.15,SE,129,0.0,0.0,84,0.00,,,0.00,WeatherCatV1.15B25,2013-09-10 05:33:00,
2013-09-10 01:38:00,54.3,49.9,30.15,SE,129,0.0,0.0,85,0.00,,,0.00,WeatherCatV1.15B25,2013-09-10 05:38:00,
2013-09-10 01:43:00,54.2,49.8,30.15,SE,129,0.0,0.0,85,0.00,,,0.00,WeatherCatV1.15B25,2013-09-10 05:43:00,
2013-09-10 01:48:00,54.1,50.0,30.15,SE,129,0.0,0.0,86,0.00,,,0.00,WeatherCatV1.15B25,2013-09-10 05:48:00,
2013-09-10 01:53:00,53.9,49.8,30.15,SE,128,0.0,0.0,86,0.00,,,0.00,WeatherCatV1.15B25,2013-09-10 05:53:00,
2013-09-10 01:58:00,53.8,49.7,30.16,SE,129,0.0,0.0,86,0.00,,,0.00,WeatherCatV1.15B25,2013-09-10 05:58:00,
2013-09-10 02:03:00,53.7,49.9,30.16,SE,129,0.0,0.0,87,0.00,,,0.00,WeatherCatV1.15B25,2013-09-10 06:03:00,
2013-09-10 02:08:00,53.6,49.8,30.16,SE,129,0.0,0.0,87,0.00,,,0.00,WeatherCatV1.15B25,2013-09-10 06:08:00,
2013-09-10 02:13:00,53.6,50.1,30.16,SE,129,0.0,0.0,88,0.00,,,0.00,WeatherCatV1.15B25,2013-09-10 06:13:00,
2013-09-10 02:18:00,53.7,50.2,30.16,SE,129,0.0,0.0,88,0.00,,,0.00,WeatherCatV1.15B25,2013-09-10 06:18:00,
2013-09-10 02:23:00,53.7,50.2,30.16,SE,129,0.0,0.0,88,0.00,,,0.00,WeatherCatV1.15B25,2013-09-10 06:23:00,
2013-09-10 02:28:00,53.8,50.3,30.16,SE,129,0.0,0.0,88,0.00,,,0.00,WeatherCatV1.15B25,2013-09-10 06:28:00,
2013-09-10 02:33:00,53.9,50.4,30.16,SE,129,0.0,0.0,88,0.00,,,0.00,WeatherCatV1.15B25,2013-09-10 06:33:00,
2013-09-10 02:38:00,54.1,50.6,30.16,SE,129,0.0,0.0,88,0.00,,,0.00,WeatherCatV1.15B25,2013-09-10 06:38:00,
2013-09-10 02:43:00,54.2,50.7,30.16,SE,129,0.0,0.0,88,0.00,,,0.00,WeatherCatV1.15B25,2013-09-10 06:43:00,
2013-09-10 02:48:00,54.3,50.5,30.16,SE,129,0.0,0.0,87,0.00,,,0.00,WeatherCatV1.15B25,2013-09-10 06:48:00,
2013-09-10 02:53:00,54.5,50.7,30.16,SE,129,0.0,0.0,87,0.00,,,0.00,WeatherCatV1.15B25,2013-09-10 06:53:00,
2013-09-10 02:58:00,54.6,50.8,30.16,SE,129,0.0,0.0,87,0.00,,,0.00,WeatherCatV1.15B25,2013-09-10 06:58:00,
2013-09-10 03:03:00,54.8,51.0,30.16,SE,129,0.0,0.0,87,0.00,,,0.00,WeatherCatV1.15B25,2013-09-10 07:03:00,
2013-09-10 03:08:00,54.9,50.8,30.15,SE,129,0.0,0.0,86,0.00,,,0.00,WeatherCatV1.15B25,2013-09-10 07:08:00,
2013-09-10 03:13:00,55.0,50.9,30.15,SE,129,0.0,0.0,86,0.00,,,0.00,WeatherCatV1.15B25,2013-09-10 07:13:00,
2013-09-10 03:18:00,55.1,51.0,30.15,SE,129,0.0,0.0,86,0.00,,,0.00,WeatherCatV1.15B25,2013-09-10 07:18:00,
2013-09-10 03:23:00,55.1,51.0,30.15,SE,129,0.0,0.0,86,0.00,,,0.00,WeatherCatV1.15B25,2013-09-10 07:23:00,
2013-09-10 03:28:00,55.3,51.2,30.15,SE,129,0.0,0.0,86,0.00,,,0.00,WeatherCatV1.15B25,2013-09-10 07:28:00,
2013-09-10 03:33:00,55.4,51.3,30.15,SE,129,0.0,0.0,86,0.00,,,0.00,WeatherCatV1.15B25,2013-09-10 07:33:00,
2013-09-10 03:38:00,55.6,51.5,30.15,SE,129,0.0,0.0,86,0.00,,,0.00,WeatherCatV1.15B25,2013-09-10 07:38:00,
2013-09-10 03:43:00,55.7,51.6,30.14,SE,129,0.0,0.0,86,0.00,,,0.00,WeatherCatV1.15B25,2013-09-10 07:43:00,
2013-09-10 03:48:00,55.9,51.8,30.14,ESE,120,0.0,1.0,86,0.00,,,0.00,WeatherCatV1.15B25,2013-09-10 07:48:00,
2013-09-10 03:53:00,56.1,51.7,30.13,ESE,115,0.0,0.0,85,0.00,,,0.00,WeatherCatV1.15B25,2013-09-10 07:53:00,
2013-09-10 03:58:00,56.2,51.7,30.13,SE,146,0.0,0.0,85,0.00,,,0.00,WeatherCatV1.15B25,2013-09-10 07:58:00,
2013-09-10 04:03:00,56.3,51.8,30.13,ESE,108,0.0,0.0,85,0.00,,,0.00,WeatherCatV1.15B25,2013-09-10 08:03:00,
2013-09-10 04:08:00,56.4,51.9,30.13,ESE,105,0.0,1.0,85,0.00,,,0.00,WeatherCatV1.15B25,2013-09-10 08:08:00,
2013-09-10 04:13:00,56.6,52.1,30.13,ESE,117,1.0,1.0,85,0.00,,,0.00,WeatherCatV1.15B25,2013-09-10 08:13:00,
2013-09-10 04:18:00,56.8,52.3,30.13,ESE,121,0.0,0.0,85,0.00,,,0.00,WeatherCatV1.15B25,2013-09-10 08:18:00,
2013-09-10 04:23:00,56.9,52.4,30.13,ESE,106,0.0,0.0,85,0.00,,,0.00,WeatherCatV1.15B25,2013-09-10 08:23:00,
2013-09-10 04:28:00,57.1,52.6,30.13,ESE,120,0.0,0.0,85,0.00,,,0.00,WeatherCatV1.15B25,2013-09-10 08:28:00,
2013-09-10 04:33:00,57.1,52.6,30.13,ESE,120,0.0,0.0,85,0.00,,,0.00,WeatherCatV1.15B25,2013-09-10 08:33:00,
2013-09-10 04:38:00,57.2,52.7,30.13,ESE,120,0.0,0.0,85,0.00,,,0.00,WeatherCatV1.15B25,2013-09-10 08:38:00,
2013-09-10 04:43:00,57.2,52.7,30.13,ESE,117,0.0,0.0,85,0.00,,,0.00,WeatherCatV1.15B25,2013-09-10 08:43:00,
2013-09-10 04:48:00,57.3,52.8,30.14,ESE,117,0.0,0.0,85,0.00,,,0.00,WeatherCatV1.15B25,2013-09-10 08:48:00,
2013-09-10 04:53:00,57.4,52.9,30.14,SE,124,0.0,0.0,85,0.00,,,0.00,WeatherCatV1.15B25,2013-09-10 08:53:00,
2013-09-10 04:58:00,57.4,52.9,30.13,SE,124,0.0,0.0,85,0.00,,,0.00,WeatherCatV1.15B25,2013-09-10 08:58:00,
2013-09-10 05:03:00,57.5,53.0,30.13,SE,124,0.0,0.0,85,0.00,,,0.00,WeatherCatV1.15B25,2013-09-10 09:03:00,
2013-09-10 05:08:00,57.6,53.1,30.13,SE,124,0.0,0.0,85,0.00,,,0.00,WeatherCatV1.15B25,2013-09-10 09:08:00,
2013-09-10 05:13:00,57.6,53.1,30.13,SE,124,0.0,0.0,85,0.00,,,0.00,WeatherCatV1.15B25,2013-09-10 09:13:00,
2013-09-10 05:18:00,57.7,53.2,30.13,SE,124,0.0,0.0,85,0.00,,,0.00,WeatherCatV1.15B25,2013-09-10 09:18:00,
2013-09-10 05:23:00,57.8,53.3,30.13,SE,124,0.0,0.0,85,0.00,,,0.00,WeatherCatV1.15B25,2013-09-10 09:23:00,
2013-09-10 05:28:00,57.8,53.3,30.13,ESE,117,0.0,0.0,85,0.00,,,0.00,WeatherCatV1.15B25,2013-09-10 09:28:00,
2013-09-10 05:33:00,57.9,53.4,30.13,ESE,114,0.0,0.0,85,0.00,,,0.00,WeatherCatV1.15B25,2013-09-10 09:33:00,
2013-09-10 05:38:00,58.0,53.5,30.13,East,95,0.0,0.0,85,0.00,,,0.00,WeatherCatV1.15B25,2013-09-10 09:38:00,
2013-09-10 05:43:00,58.1,53.6,30.13,SSE,155,0.0,0.0,85,0.00,,,0.00,WeatherCatV1.15B25,2013-09-10 09:43:00,
2013-09-10 05:48:00,58.2,53.7,30.13,SSE,154,0.0,0.0,85,0.00,,,0.00,WeatherCatV1.15B25,2013-09-10 09:48:00,
2013-09-10 05:53:00,58.2,53.7,30.13,SSE,154,0.0,0.0,85,0.00,,,0.00,WeatherCatV1.15B25,2013-09-10 09:53:00,
2013-09-10 05:58:00,58.3,53.8,30.12,SE,129,1.0,1.0,85,0.00,,,0.00,WeatherCatV1.15B25,2013-09-10 09:58:00,
2013-09-10 06:03:00,58.3,53.8,30.13,SE,129,0.0,0.0,85,0.00,,,0.00,WeatherCatV1.15B25,2013-09-10 10:03:00,
2013-09-10 06:08:00,58.3,53.8,30.13,SE,129,0.0,0.0,85,0.00,,,0.00,WeatherCatV1.15B25,2013-09-10 10:08:00,
2013-09-10 06:13:00,58.3,53.8,30.13,SE,129,0.0,0.0,85,0.00,,,0.00,WeatherCatV1.15B25,2013-09-10 10:13:00,
2013-09-10 06:18:00,58.4,53.9,30.13,SE,129,0.0,0.0,85,0.00,,,0.00,WeatherCatV1.15B25,2013-09-10 10:18:00,
2013-09-10 06:23:00,58.4,53.9,30.13,SE,129,0.0,0.0,85,0.00,,,0.00,WeatherCatV1.15B25,2013-09-10 10:23:00,
2013-09-10 06:28:00,58.4,53.9,30.13,SE,129,0.0,0.0,85,0.00,,,0.00,WeatherCatV1.15B25,2013-09-10 10:28:00,
2013-09-10 06:33:00,58.5,54.0,30.13,SE,129,0.0,0.0,85,0.00,,,0.00,WeatherCatV1.15B25,2013-09-10 10:33:00,
2013-09-10 06:38:00,58.6,54.1,30.13,SE,129,0.0,0.0,85,0.00,,,0.00,WeatherCatV1.15B25,2013-09-10 10:38:00,
2013-09-10 06:43:00,58.7,54.2,30.13,SE,129,0.0,1.0,85,0.00,,,0.00,WeatherCatV1.15B25,2013-09-10 10:43:00,
2013-09-10 06:48:00,58.8,54.3,30.13,SE,129,0.0,0.0,85,0.00,,,0.00,WeatherCatV1.15B25,2013-09-10 10:48:00,
2013-09-10 06:53:00,58.8,54.3,30.13,SE,129,0.0,0.0,85,0.00,,,0.00,WeatherCatV1.15B25,2013-09-10 10:53:00,
2013-09-10 06:59:00,59.0,54.8,30.14,SE,129,0.0,0.0,86,0.00,,,0.00,WeatherCatV1.15B25,2013-09-10 10:59:00,
2013-09-10 07:04:00,59.1,54.9,30.14,SE,129,0.0,0.0,86,0.00,,,0.00,WeatherCatV1.15B25,2013-09-10 11:04:00,
2013-09-10 07:09:00,59.3,55.1,30.14,ESE,108,0.0,2.0,86,0.00,,,0.00,WeatherCatV1.15B25,2013-09-10 11:09:00,
2013-09-10 07:14:00,59.5,55.3,30.14,ESE,108,0.0,0.0,86,0.00,,,0.00,WeatherCatV1.15B25,2013-09-10 11:14:00,
2013-09-10 07:19:00,59.7,55.5,30.14,ESE,108,0.0,0.0,86,0.00,,,0.00,WeatherCatV1.15B25,2013-09-10 11:19:00,
2013-09-10 07:24:00,59.9,55.7,30.14,ESE,113,0.0,0.0,86,0.00,,,0.00,WeatherCatV1.15B25,2013-09-10 11:24:00,
2013-09-10 07:29:00,60.0,55.8,30.13,SE,138,0.0,1.0,86,0.00,,,0.00,WeatherCatV1.15B25,2013-09-10 11:29:00,
2013-09-10 07:34:00,60.1,55.6,30.13,SSE,158,0.0,0.0,85,0.00,,,0.00,WeatherCatV1.15B25,2013-09-10 11:34:00,
2013-09-10 07:39:00,60.3,55.8,30.12,SE,132,0.0,0.0,85,0.00,,,0.00,WeatherCatV1.15B25,2013-09-10 11:39:00,
2013-09-10 07:44:00,60.5,56.3,30.12,SE,124,1.0,3.0,86,0.00,,,0.00,WeatherCatV1.15B25,2013-09-10 11:44:00,
2013-09-10 07:49:00,60.8,56.3,30.12,ESE,108,0.0,0.0,85,0.00,,,0.00,WeatherCatV1.15B25,2013-09-10 11:49:00,
2013-09-10 07:54:00,61.1,56.6,30.12,SE,143,0.0,0.0,85,0.00,,,0.00,WeatherCatV1.15B25,2013-09-10 11:54:00,
2013-09-10 07:59:00,61.2,57.0,30.12,SE,139,1.0,1.0,86,0.00,,,0.00,WeatherCatV1.15B25,2013-09-10 11:59:00,
2013-09-10 08:04:00,61.3,57.1,30.12,ESE,105,0.0,1.0,86,0.00,,,0.00,WeatherCatV1.15B25,2013-09-10 12:04:00,
2013-09-10 08:09:00,61.3,57.4,30.12,ESE,105,0.0,0.0,87,0.00,,,0.00,WeatherCatV1.15B25,2013-09-10 12:09:00,
2013-09-10 08:14:00,61.4,57.5,30.12,North,3,0.0,0.0,87,0.00,,,0.00,WeatherCatV1.15B25,2013-09-10 12:14:00,
2013-09-10 08:19:00,61.6,57.4,30.12,ESE,110,0.0,0.0,86,0.00,,,0.00,WeatherCatV1.15B25,2013-09-10 12:19:00,
2013-09-10 08:24:00,61.8,57.6,30.12,NE,34,0.0,1.0,86,0.00,,,0.00,WeatherCatV1.15B25,2013-09-10 12:24:00,
2013-09-10 08:29:00,62.1,57.9,30.12,NNW,346,2.0,2.0,86,0.00,,,0.00,WeatherCatV1.15B25,2013-09-10 12:29:00,
2013-09-10 08:34:00,62.4,57.8,30.12,ESE,116,0.0,1.0,85,0.00,,,0.00,WeatherCatV1.15B25,2013-09-10 12:34:00,
2013-09-10 08:39:00,62.7,58.1,30.12,ESE,115,0.0,2.0,85,0.00,,,0.00,WeatherCatV1.15B25,2013-09-10 12:39:00,
2013-09-10 08:44:00,62.9,58.3,30.13,SSE,153,0.0,1.0,85,0.00,,,0.00,WeatherCatV1.15B25,2013-09-10 12:44:00,
2013-09-10 08:49:00,63.0,58.4,30.13,NE,45,0.0,1.0,85,0.00,,,0.00,WeatherCatV1.15B25,2013-09-10 12:49:00,
2013-09-10 08:54:00,63.3,58.7,30.13,SSW,204,0.0,2.0,85,0.00,,,0.00,WeatherCatV1.15B25,2013-09-10 12:54:00,
2013-09-10 08:59:00,63.5,58.9,30.12,ESE,110,1.0,2.0,85,0.00,,,0.00,WeatherCatV1.15B25,2013-09-10 12:59:00,
2013-09-10 09:04:00,63.9,59.3,30.12,ENE,75,0.0,2.0,85,0.00,,,0.00,WeatherCatV1.15B25,2013-09-10 13:04:00,
2013-09-10 09:09:00,64.2,59.6,30.12,SE,135,2.0,2.0,85,0.00,,,0.00,WeatherCatV1.15B25,2013-09-10 13:09:00,
2013-09-10 09:14:00,64.6,60.0,30.12,NNW,328,3.0,3.0,85,0.00,,,0.00,WeatherCatV1.15B25,2013-09-10 13:14:00,
2013-09-10 09:19:00,64.8,60.2,30.12,NW,311,0.0,1.0,85,0.00,,,0.00,WeatherCatV1.15B25,2013-09-10 13:19:00,
2013-09-10 09:24:00,65.0,60.4,30.12,WNW,288,3.0,4.0,85,0.00,,,0.00,WeatherCatV1.15B25,2013-09-10 13:24:00,
2013-09-10 09:29:00,65.1,60.5,30.11,North,354,0.0,4.0,85,0.00,,,0.00,WeatherCatV1.15B25,2013-09-10 13:29:00,
2013-09-10 09:34:00,65.4,60.8,30.11,NNE,27,2.0,2.0,85,0.00,,,0.00,WeatherCatV1.15B25,2013-09-10 13:34:00,
2013-09-10 09:39:00,65.6,61.0,30.11,NNE,13,1.0,2.0,85,0.00,,,0.00,WeatherCatV1.15B25,2013-09-10 13:39:00,
2013-09-10 09:44:00,65.8,61.2,30.11,NNE,27,2.0,2.0,85,0.00,,,0.00,WeatherCatV1.15B25,2013-09-10 13:44:00,
2013-09-10 09:49:00,66.0,61.0,30.11,SSW,193,1.0,2.0,84,0.00,,,0.00,WeatherCatV1.15B25,2013-09-10 13:49:00,
2013-09-10 09:54:00,66.1,61.1,30.11,NW,317,0.0,4.0,84,0.00,,,0.00,WeatherCatV1.15B25,2013-09-10 13:54:00,
2013-09-10 09:59:00,66.3,61.3,30.11,NNW,336,3.0,3.0,84,0.00,,,0.00,WeatherCatV1.15B25,2013-09-10 13:59:00,
2013-09-10 10:04:00,66.4,61.4,30.11,SE,128,0.0,3.0,84,0.00,,,0.00,WeatherCatV1.15B25,2013-09-10 14:04:00,
2013-09-10 10:09:00,66.5,61.5,30.11,East,86,0.0,4.0,84,0.00,,,0.00,WeatherCatV1.15B25,2013-09-10 14:09:00,
2013-09-10 10:14:00,66.6,61.6,30.11,South,170,0.0,1.0,84,0.00,,,0.00,WeatherCatV1.15B25,2013-09-10 14:14:00,
2013-09-10 10:19:00,66.6,61.6,30.11,SSW,207,1.0,2.0,84,0.00,,,0.00,WeatherCatV1.15B25,2013-09-10 14:19:00,
2013-09-10 10:24:00,66.7,61.7,30.11,North,6,0.0,2.0,84,0.00,,,0.00,WeatherCatV1.15B25,2013-09-10 14:24:00,
2013-09-10 10:29:00,66.8,61.8,30.11,NNE,17,1.0,4.0,84,0.00,,,0.00,WeatherCatV1.15B25,2013-09-10 14:29:00,
2013-09-10 10:34:00,66.9,61.9,30.11,ESE,123,1.0,6.0,84,0.00,,,0.00,WeatherCatV1.15B25,2013-09-10 14:34:00,
2013-09-10 10:39:00,66.9,61.9,30.11,NNW,333,0.0,8.0,84,0.00,,,0.00,WeatherCatV1.15B25,2013-09-10 14:39:00,
2013-09-10 10:44:00,67.0,62.3,30.11,SE,137,1.0,1.0,85,0.00,,,0.00,WeatherCatV1.15B25,2013-09-10 14:44:00,
2013-09-10 10:49:00,67.1,62.4,30.10,ESE,112,0.0,1.0,85,0.00,,,0.00,WeatherCatV1.15B25,2013-09-10 14:49:00,
2013-09-10 10:54:00,67.2,62.5,30.10,ENE,78,1.0,3.0,85,0.00,,,0.00,WeatherCatV1.15B25,2013-09-10 14:54:00,
2013-09-10 10:59:00,67.3,62.6,30.10,NNE,13,0.0,5.0,85,0.00,,,0.00,WeatherCatV1.15B25,2013-09-10 14:59:00,
2013-09-10 11:04:00,67.4,62.7,30.10,SSW,207,0.0,2.0,85,0.00,,,0.00,WeatherCatV1.15B25,2013-09-10 15:04:00,
2013-09-10 11:09:00,67.5,62.8,30.10,North,8,1.0,4.0,85,0.00,,,0.00,WeatherCatV1.15B25,2013-09-10 15:09:00,
2013-09-10 11:14:00,67.5,62.8,30.10,WNW,293,0.0,3.0,85,0.00,,,0.00,WeatherCatV1.15B25,2013-09-10 15:14:00,
2013-09-10 11:19:00,67.4,63.1,30.10,NNE,14,3.0,3.0,86,0.00,,,0.00,WeatherCatV1.15B25,2013-09-10 15:19:00,
2013-09-10 11:24:00,67.4,63.1,30.10,NE,40,0.0,1.0,86,0.00,,,0.00,WeatherCatV1.15B25,2013-09-10 15:24:00,
2013-09-10 11:29:00,67.3,63.3,30.10,ENE,58,0.0,0.0,87,0.00,,,0.00,WeatherCatV1.15B25,2013-09-10 15:29:00,
2013-09-10 11:34:00,67.1,63.1,30.09,NW,305,0.0,2.0,87,0.00,,,0.00,WeatherCatV1.15B25,2013-09-10 15:34:00,
2013-09-10 11:39:00,67.0,63.3,30.08,SSW,194,1.0,1.0,88,0.00,,,0.00,WeatherCatV1.15B25,2013-09-10 15:39:00,
2013-09-10 11:44:00,66.7,63.3,30.07,ESE,111,1.0,7.0,89,0.00,,,0.00,WeatherCatV1.15B25,2013-09-10 15:44:00,
2013-09-10 11:49:00,66.4,63.4,30.07,East,83,0.0,5.0,90,0.00,,,0.00,WeatherCatV1.15B25,2013-09-10 15:49:00,
2013-09-10 11:54:00,66.1,63.4,30.04,ESE,112,0.0,1.0,91,0.00,,,0.00,WeatherCatV1.15B25,2013-09-10 15:54:00,
2013-09-10 11:59:00,65.9,63.5,30.03,North,2,1.0,10.0,92,0.00,,,0.00,WeatherCatV1.15B25,2013-09-10 15:59:00,
2013-09-10 12:04:00,65.8,63.7,30.03,ESE,121,0.0,10.0,93,0.00,,,0.00,WeatherCatV1.15B25,2013-09-10 16:04:00,
2013-09-10 12:09:00,65.8,63.7,30.03,WNW,303,1.0,7.0,93,0.00,,,0.00,WeatherCatV1.15B25,2013-09-10 16:09:00,
2013-09-10 12:14:00,65.8,63.7,30.04,East,92,1.0,4.0,93,0.00,,,0.00,WeatherCatV1.15B25,2013-09-10 16:14:00,
2013-09-10 12:19:00,65.9,64.1,30.05,East,89,0.0,4.0,94,0.00,,,0.00,WeatherCatV1.15B25,2013-09-10 16:19:00,
2013-09-10 12:24:00,66.0,64.2,30.05,NNE,23,2.0,2.0,94,0.00,,,0.00,WeatherCatV1.15B25,2013-09-10 16:24:00,
2013-09-10 12:29:00,66.0,64.2,30.05,ESE,113,2.0,2.0,94,0.00,,,0.00,WeatherCatV1.15B25,2013-09-10 16:29:00,
2013-09-10 12:34:00,66.1,64.3,30.05,NNE,22,1.0,3.0,94,0.00,,,0.00,WeatherCatV1.15B25,2013-09-10 16:34:00,
2013-09-10 12:39:00,66.1,64.3,30.04,ESE,108,0.0,5.0,94,0.00,,,0.00,WeatherCatV1.15B25,2013-09-10 16:39:00,
2013-09-10 12:44:00,66.3,64.5,30.05,North,350,1.0,3.0,94,0.00,,,0.00,WeatherCatV1.15B25,2013-09-10 16:44:00,
2013-09-10 12:49:00,66.4,64.9,30.06,NNW,328,0.0,0.0,95,0.00,,,0.00,WeatherCatV1.15B25,2013-09-10 16:49:00,
2013-09-10 12:54:00,66.5,65.0,30.06,North,354,1.0,4.0,95,0.00,,,0.00,WeatherCatV1.15B25,2013-09-10 16:54:00,
2013-09-10 12:59:00,66.7,65.2,30.06,North,1,0.0,6.0,95,0.00,,,0.00,WeatherCatV1.15B25,2013-09-10 16:59:00,
2013-09-10 13:04:00,66.9,65.4,30.05,ESE,115,0.0,2.0,95,0.00,,,0.00,WeatherCatV1.15B25,2013-09-10 17:04:00,
2013-09-10 13:09:00,67.1,65.6,30.05,South,172,0.0,1.0,95,0.00,,,0.00,WeatherCatV1.15B25,2013-09-10 17:09:00,
2013-09-10 13:14:00,67.3,65.8,30.05,South,172,0.0,1.0,95,0.00,,,0.00,WeatherCatV1.15B25,2013-09-10 17:14:00,
2013-09-10 13:19:00,67.4,65.9,30.05,WNW,296,2.0,2.0,95,0.00,,,0.00,WeatherCatV1.15B25,2013-09-10 17:19:00,
2013-09-10 13:24:00,67.5,66.0,30.05,NW,317,0.0,3.0,95,0.00,,,0.00,WeatherCatV1.15B25,2013-09-10 17:24:00,
2013-09-10 13:29:00,67.5,66.0,30.06,NW,318,0.0,0.0,95,0.00,,,0.00,WeatherCatV1.15B25,2013-09-10 17:29:00,
2013-09-10 13:34:00,67.7,66.2,30.06,South,179,0.0,1.0,95,0.00,,,0.00,WeatherCatV1.15B25,2013-09-10 17:34:00,
2013-09-10 13:39:00,67.7,66.2,30.05,SE,145,0.0,1.0,95,0.00,,,0.00,WeatherCatV1.15B25,2013-09-10 17:39:00,
2013-09-10 13:44:00,67.9,66.4,30.05,East,92,1.0,1.0,95,0.00,,,0.00,WeatherCatV1.15B25,2013-09-10 17:44:00,
2013-09-10 13:49:00,67.9,66.4,30.05,NW,316,0.0,0.0,95,0.00,,,0.00,WeatherCatV1.15B25,2013-09-10 17:49:00,
2013-09-10 13:54:00,68.0,66.5,30.05,NW,316,0.0,0.0,95,0.00,,,0.00,WeatherCatV1.15B25,2013-09-10 17:54:00,
2013-09-10 13:59:00,68.2,66.7,30.05,NW,316,0.0,1.0,95,0.00,,,0.00,WeatherCatV1.15B25,2013-09-10 17:59:00,
2013-09-10 14:04:00,68.2,66.4,30.05,SE,136,0.0,1.0,94,0.00,,,0.00,WeatherCatV1.15B25,2013-09-10 18:04:00,
2013-09-10 14:09:00,68.3,66.5,30.05,NNE,25,0.0,0.0,94,0.00,,,0.00,WeatherCatV1.15B25,2013-09-10 18:09:00,
2013-09-10 14:14:00,68.4,66.6,30.05,ESE,113,0.0,0.0,94,0.00,,,0.00,WeatherCatV1.15B25,2013-09-10 18:14:00,
2013-09-10 14:19:00,68.5,66.7,30.05,ESE,113,0.0,0.0,94,0.00,,,0.00,WeatherCatV1.15B25,2013-09-10 18:19:00,
2013-09-10 14:24:00,68.5,66.7,30.05,ESE,117,0.0,2.0,94,0.00,,,0.00,WeatherCatV1.15B25,2013-09-10 18:24:00,
2013-09-10 14:29:00,68.6,66.8,30.05,ESE,117,0.0,0.0,94,0.00,,,0.00,WeatherCatV1.15B25,2013-09-10 18:29:00,
2013-09-10 14:34:00,68.8,67.0,30.05,ESE,117,0.0,0.0,94,0.00,,,0.00,WeatherCatV1.15B25,2013-09-10 18:34:00,
2013-09-10 14:39:00,69.0,67.2,30.05,ESE,104,0.0,0.0,94,0.00,,,0.00,WeatherCatV1.15B25,2013-09-10 18:39:00,
2013-09-10 14:44:00,69.2,67.4,30.05,SE,126,0.0,1.0,94,0.00,,,0.00,WeatherCatV1.15B25,2013-09-10 18:44:00,
2013-09-10 14:49:00,69.3,67.5,30.05,ESE,103,0.0,3.0,94,0.00,,,0.00,WeatherCatV1.15B25,2013-09-10 18:49:00,
2013-09-10 14:54:00,69.6,67.8,30.05,SE,134,0.0,2.0,94,0.00,,,0.00,WeatherCatV1.15B25,2013-09-10 18:54:00,
2013-09-10 14:59:00,69.9,68.1,30.05,SE,136,0.0,3.0,94,0.00,,,0.00,WeatherCatV1.15B25,2013-09-10 18:59:00,
2013-09-10 15:04:00,70.3,68.5,30.04,North,10,0.0,1.0,94,0.00,,,0.00,WeatherCatV1.15B25,2013-09-10 19:04:00,
2013-09-10 15:09:00,70.9,69.1,30.05,ESE,117,0.0,1.0,94,0.00,,,0.00,WeatherCatV1.15B25,2013-09-10 19:09:00,
2013-09-10 15:14:00,71.3,68.8,30.04,WNW,295,2.0,2.0,92,0.00,,,0.00,WeatherCatV1.15B25,2013-09-10 19:14:00,
2013-09-10 15:19:00,71.7,69.2,30.04,ESE,113,1.0,1.0,92,0.00,,,0.00,WeatherCatV1.15B25,2013-09-10 19:19:00,
2013-09-10 15:24:00,71.9,69.1,30.04,East,94,2.0,2.0,91,0.00,,,0.00,WeatherCatV1.15B25,2013-09-10 19:24:00,
2013-09-10 15:29:00,72.2,69.4,30.04,SSE,148,0.0,1.0,91,0.00,,,0.00,WeatherCatV1.15B25,2013-09-10 19:29:00,
2013-09-10 15:34:00,72.6,69.5,30.04,NNE,14,0.0,2.0,90,0.00,,,0.00,WeatherCatV1.15B25,2013-09-10 19:34:00,
2013-09-10 15:39:00,72.7,69.3,30.04,ESE,104,0.0,2.0,89,0.00,,,0.00,WeatherCatV1.15B25,2013-09-10 19:39:00,
2013-09-10 15:44:00,73.0,69.9,30.04,East,94,2.0,6.0,90,0.00,,,0.00,WeatherCatV1.15B25,2013-09-10 19:44:00,
2013-09-10 15:49:00,73.1,69.7,30.04,ESE,107,0.0,0.0,89,0.00,,,0.00,WeatherCatV1.15B25,2013-09-10 19:49:00,
2013-09-10 15:54:00,73.5,69.7,30.04,SSE,155,1.0,2.0,88,0.00,,,0.00,WeatherCatV1.15B25,2013-09-10 19:54:00,
2013-09-10 15:59:00,73.7,69.6,30.04,NNW,337,2.0,2.0,87,0.00,,,0.00,WeatherCatV1.15B25,2013-09-10 19:59:00,
2013-09-10 16:04:00,73.8,69.7,30.04,East,96,1.0,3.0,87,0.00,,,0.00,WeatherCatV1.15B25,2013-09-10 20:04:00,
2013-09-10 16:09:00,73.7,69.6,30.04,ESE,115,0.0,2.0,87,0.00,,,0.00,WeatherCatV1.15B25,2013-09-10 20:09:00,
2013-09-10 16:14:00,73.6,69.5,30.04,North,6,0.0,2.0,87,0.00,,,0.00,WeatherCatV1.15B25,2013-09-10 20:14:00,
2013-09-10 16:19:00,73.6,69.8,30.04,North,6,1.0,2.0,88,0.00,,,0.00,WeatherCatV1.15B25,2013-09-10 20:19:00,
2013-09-10 16:24:00,73.7,69.9,30.04,ENE,68,0.0,1.0,88,0.00,,,0.00,WeatherCatV1.15B25,2013-09-10 20:24:00,
2013-09-10 16:29:00,73.7,69.9,30.04,ESE,112,1.0,1.0,88,0.00,,,0.00,WeatherCatV1.15B25,2013-09-10 20:29:00,
2013-09-10 16:34:00,73.8,70.0,30.04,SE,128,0.0,2.0,88,0.00,,,0.00,WeatherCatV1.15B25,2013-09-10 20:34:00,
2013-09-10 16:39:00,73.9,69.8,30.04,ENE,60,1.0,1.0,87,0.00,,,0.00,WeatherCatV1.15B25,2013-09-10 20:39:00,
2013-09-10 16:44:00,74.0,70.2,30.03,ESE,121,0.0,0.0,88,0.00,,,0.00,WeatherCatV1.15B25,2013-09-10 20:44:00,
2013-09-10 16:49:00,74.0,69.9,30.04,East,88,1.0,4.0,87,0.00,,,0.00,WeatherCatV1.15B25,2013-09-10 20:49:00,
2013-09-10 16:54:00,74.0,69.9,30.04,East,94,0.0,1.0,87,0.00,,,0.00,WeatherCatV1.15B25,2013-09-10 20:54:00,
2013-09-10 16:59:00,74.2,70.1,30.04,ENE,70,1.0,1.0,87,0.00,,,0.00,WeatherCatV1.15B25,2013-09-10 20:59:00,
2013-09-10 17:04:00,74.2,70.1,30.03,ESE,122,0.0,1.0,87,0.00,,,0.00,WeatherCatV1.15B25,2013-09-10 21:04:00,
2013-09-10 17:09:00,74.2,70.1,30.03,SSE,148,0.0,1.0,87,0.00,,,0.00,WeatherCatV1.15B25,2013-09-10 21:09:00,
2013-09-10 17:14:00,74.2,70.1,30.03,ESE,105,0.0,1.0,87,0.00,,,0.00,WeatherCatV1.15B25,2013-09-10 21:14:00,
2013-09-10 17:19:00,74.2,70.1,30.03,ESE,105,0.0,1.0,87,0.00,,,0.00,WeatherCatV1.15B25,2013-09-10 21:19:00,
2013-09-10 17:24:00,74.3,70.5,30.03,ESE,106,0.0,0.0,88,0.00,,,0.00,WeatherCatV1.15B25,2013-09-10 21:24:00,
2013-09-10 17:29:00,74.4,70.6,30.02,East,85,0.0,1.0,88,0.00,,,0.00,WeatherCatV1.15B25,2013-09-10 21:29:00,
2013-09-10 17:34:00,74.5,70.4,30.02,ESE,108,0.0,1.0,87,0.00,,,0.00,WeatherCatV1.15B25,2013-09-10 21:34:00,
2013-09-10 17:39:00,74.5,70.4,30.02,SE,132,0.0,1.0,87,0.00,,,0.00,WeatherCatV1.15B25,2013-09-10 21:39:00,
2013-09-10 17:44:00,74.5,70.4,30.02,ESE,115,0.0,2.0,87,0.00,,,0.00,WeatherCatV1.15B25,2013-09-10 21:44:00,
2013-09-10 17:49:00,74.4,70.3,30.02,SSE,150,0.0,2.0,87,0.00,,,0.00,WeatherCatV1.15B25,2013-09-10 21:49:00,
2013-09-10 17:54:00,74.3,70.2,30.03,NE,39,0.0,0.0,87,0.00,,,0.00,WeatherCatV1.15B25,2013-09-10 21:54:00,
2013-09-10 17:59:00,74.2,69.7,30.03,NW,324,0.0,3.0,86,0.00,,,0.00,WeatherCatV1.15B25,2013-09-10 21:59:00,
2013-09-10 18:04:00,74.1,70.0,30.03,East,98,1.0,2.0,87,0.00,,,0.00,WeatherCatV1.15B25,2013-09-10 22:04:00,
2013-09-10 18:09:00,74.0,69.5,30.03,NE,37,0.0,1.0,86,0.00,,,0.00,WeatherCatV1.15B25,2013-09-10 22:09:00,
2013-09-10 18:14:00,74.0,69.5,30.03,NW,317,0.0,0.0,86,0.00,,,0.00,WeatherCatV1.15B25,2013-09-10 22:14:00,
2013-09-10 18:19:00,73.9,69.4,30.03,NW,317,0.0,1.0,86,0.00,,,0.00,WeatherCatV1.15B25,2013-09-10 22:19:00,
2013-09-10 18:24:00,73.8,69.3,30.03,East,91,0.0,1.0,86,0.00,,,0.00,WeatherCatV1.15B25,2013-09-10 22:24:00,
2013-09-10 18:29:00,73.8,69.3,30.03,NW,326,0.0,1.0,86,0.00,,,0.00,WeatherCatV1.15B25,2013-09-10 22:29:00,
2013-09-10 18:34:00,73.7,69.2,30.03,NW,325,0.0,0.0,86,0.00,,,0.00,WeatherCatV1.15B25,2013-09-10 22:34:00,
2013-09-10 18:39:00,73.7,69.2,30.03,NNE,14,1.0,2.0,86,0.00,,,0.00,WeatherCatV1.15B25,2013-09-10 22:39:00,
2013-09-10 18:44:00,73.6,69.1,30.03,North,356,0.0,1.0,86,0.00,,,0.00,WeatherCatV1.15B25,2013-09-10 22:44:00,
2013-09-10 18:49:00,73.6,69.5,30.03,WNW,297,0.0,0.0,87,0.00,,,0.00,WeatherCatV1.15B25,2013-09-10 22:49:00,
2013-09-10 18:54:00,73.6,69.1,30.03,South,171,0.0,0.0,86,0.00,,,0.00,WeatherCatV1.15B25,2013-09-10 22:54:00,
2013-09-10 18:59:00,73.5,69.4,30.03,NW,319,0.0,0.0,87,0.00,,,0.00,WeatherCatV1.15B25,2013-09-10 22:59:00,
2013-09-10 19:04:00,73.5,69.4,30.03,NNW,327,0.0,0.0,87,0.00,,,0.00,WeatherCatV1.15B25,2013-09-10 23:04:00,
2013-09-10 19:09:00,73.4,69.3,30.03,SE,127,1.0,1.0,87,0.00,,,0.00,WeatherCatV1.15B25,2013-09-10 23:09:00,
2013-09-10 19:14:00,73.4,69.3,30.04,NE,37,0.0,1.0,87,0.00,,,0.00,WeatherCatV1.15B25,2013-09-10 23:14:00,
2013-09-10 19:19:00,73.3,69.2,30.04,NNE,23,0.0,0.0,87,0.00,,,0.00,WeatherCatV1.15B25,2013-09-10 23:19:00,
2013-09-10 19:24:00,73.3,69.2,30.04,NNE,28,0.0,0.0,87,0.00,,,0.00,WeatherCatV1.15B25,2013-09-10 23:24:00,
2013-09-10 19:29:00,73.2,69.1,30.05,NNE,32,1.0,1.0,87,0.00,,,0.00,WeatherCatV1.15B25,2013-09-10 23:29:00,
2013-09-10 19:34:00,73.1,69.3,30.05,NNE,32,0.0,0.0,88,0.00,,,0.00,WeatherCatV1.15B25,2013-09-10 23:34:00,
2013-09-10 19:39:00,73.0,69.2,30.05,NNE,32,0.0,0.0,88,0.00,,,0.00,WeatherCatV1.15B25,2013-09-10 23:39:00,
2013-09-10 19:44:00,72.9,69.1,30.05,NNE,32,0.0,0.0,88,0.00,,,0.00,WeatherCatV1.15B25,2013-09-10 23:44:00,
2013-09-10 19:49:00,72.8,69.4,30.05,NNE,32,0.0,1.0,89,0.00,,,0.00,WeatherCatV1.15B25,2013-09-10 23:49:00,
2013-09-10 19:54:00,72.7,69.3,30.06,NNE,32,0.0,0.0,89,0.00,,,0.00,WeatherCatV1.15B25,2013-09-10 23:54:00,
2013-09-10 19:59:00,72.6,69.2,30.06,NNE,32,0.0,0.0,89,0.00,,,0.00,WeatherCatV1.15B25,2013-09-10 23:59:00,
2013-09-10 20:04:00,72.5,69.1,30.06,NNE,32,0.0,0.0,89,0.00,,,0.00,WeatherCatV1.15B25,2013-09-11 00:04:00,
2013-09-10 20:09:00,72.4,69.3,30.06,NNE,32,0.0,0.0,90,0.00,,,0.00,WeatherCatV1.15B25,2013-09-11 00:09:00,
2013-09-10 20:14:00,72.3,69.2,30.07,NNE,32,0.0,0.0,90,0.00,,,0.00,WeatherCatV1.15B25,2013-09-11 00:14:00,
2013-09-10 20:19:00,72.2,69.1,30.07,NNE,32,0.0,0.0,90,0.00,,,0.00,WeatherCatV1.15B25,2013-09-11 00:19:00,
2013-09-10 20:24:00,72.1,69.3,30.07,NNE,32,0.0,0.0,91,0.00,,,0.00,WeatherCatV1.15B25,2013-09-11 00:24:00,
2013-09-10 20:29:00,72.1,69.3,30.07,NNE,32,0.0,0.0,91,0.00,,,0.00,WeatherCatV1.15B25,2013-09-11 00:29:00,
2013-09-10 20:34:00,72.0,69.2,30.07,NNE,32,0.0,0.0,91,0.00,,,0.00,WeatherCatV1.15B25,2013-09-11 00:34:00,
2013-09-10 20:39:00,72.0,69.2,30.07,NNE,32,0.0,0.0,91,0.00,,,0.00,WeatherCatV1.15B25,2013-09-11 00:39:00,
2013-09-10 20:44:00,72.0,69.2,30.07,NNE,32,0.0,0.0,91,0.00,,,0.00,WeatherCatV1.15B25,2013-09-11 00:44:00,
2013-09-10 20:49:00,71.9,69.1,30.07,NNE,32,0.0,0.0,91,0.00,,,0.00,WeatherCatV1.15B25,2013-09-11 00:49:00,
2013-09-10 20:54:00,71.9,69.1,30.07,NNE,32,0.0,0.0,91,0.00,,,0.00,WeatherCatV1.15B25,2013-09-11 00:54:00,
2013-09-10 20:59:00,71.8,69.0,30.07,NNE,32,0.0,0.0,91,0.00,,,0.00,WeatherCatV1.15B25,2013-09-11 00:59:00,
2013-09-10 21:04:00,71.8,69.0,30.08,NNE,32,0.0,0.0,91,0.00,,,0.00,WeatherCatV1.15B25,2013-09-11 01:04:00,
2013-09-10 21:09:00,71.8,69.3,30.07,NNE,32,0.0,1.0,92,0.00,,,0.00,WeatherCatV1.15B25,2013-09-11 01:09:00,
2013-09-10 21:14:00,71.9,69.1,30.07,NNE,32,0.0,0.0,91,0.00,,,0.00,WeatherCatV1.15B25,2013-09-11 01:14:00,
2013-09-10 21:19:00,72.0,69.2,30.07,NNE,32,0.0,0.0,91,0.00,,,0.00,WeatherCatV1.15B25,2013-09-11 01:19:00,
2013-09-10 21:24:00,72.0,69.2,30.07,NNE,32,0.0,0.0,91,0.00,,,0.00,WeatherCatV1.15B25,2013-09-11 01:24:00,
2013-09-10 21:29:00,72.0,69.2,30.07,NNE,32,0.0,0.0,91,0.00,,,0.00,WeatherCatV1.15B25,2013-09-11 01:29:00,
2013-09-10 21:34:00,72.0,69.2,30.07,NE,49,0.0,0.0,91,0.00,,,0.00,WeatherCatV1.15B25,2013-09-11 01:34:00,
2013-09-10 21:39:00,72.0,69.2,30.07,NE,49,0.0,0.0,91,0.00,,,0.00,WeatherCatV1.15B25,2013-09-11 01:39:00,
2013-09-10 21:44:00,72.0,69.2,30.07,NE,49,0.0,0.0,91,0.00,,,0.00,WeatherCatV1.15B25,2013-09-11 01:44:00,
2013-09-10 21:49:00,72.0,69.2,30.07,NE,49,0.0,0.0,91,0.00,,,0.00,WeatherCatV1.15B25,2013-09-11 01:49:00,
2013-09-10 21:54:00,72.0,69.2,30.08,NE,54,0.0,0.0,91,0.00,,,0.00,WeatherCatV1.15B25,2013-09-11 01:54:00,
2013-09-10 21:59:00,72.0,69.2,30.08,NE,54,0.0,0.0,91,0.00,,,0.00,WeatherCatV1.15B25,2013-09-11 01:59:00,
2013-09-10 22:05:00,72.1,69.3,30.08,ENE,57,0.0,0.0,91,0.00,,,0.00,WeatherCatV1.15B25,2013-09-11 02:05:00,
2013-09-10 22:10:00,72.2,69.4,30.08,ENE,58,0.0,0.0,91,0.00,,,0.00,WeatherCatV1.15B25,2013-09-11 02:10:00,
2013-09-10 22:15:00,72.2,69.4,30.08,ENE,58,0.0,0.0,91,0.00,,,0.00,WeatherCatV1.15B25,2013-09-11 02:15:00,
2013-09-10 22:20:00,72.2,69.4,30.08,ENE,57,0.0,0.0,91,0.00,,,0.00,WeatherCatV1.15B25,2013-09-11 02:20:00,
2013-09-10 22:25:00,72.2,69.4,30.07,East,98,0.0,0.0,91,0.00,,,0.00,WeatherCatV1.15B25,2013-09-11 02:25:00,
2013-09-10 22:30:00,72.2,69.4,30.07,East,98,0.0,0.0,91,0.00,,,0.00,WeatherCatV1.15B25,2013-09-11 02:30:00,
2013-09-10 22:35:00,72.2,69.4,30.07,East,98,0.0,0.0,91,0.00,,,0.00,WeatherCatV1.15B25,2013-09-11 02:35:00,
2013-09-10 22:40:00,72.2,69.4,30.07,SE,125,0.0,1.0,91,0.00,,,0.00,WeatherCatV1.15B25,2013-09-11 02:40:00,
2013-09-10 22:45:00,72.2,69.4,30.07,SE,125,0.0,1.0,91,0.00,,,0.00,WeatherCatV1.15B25,2013-09-11 02:45:00,
2013-09-10 22:50:00,72.2,69.4,30.07,SE,125,0.0,1.0,91,0.00,,,0.00,WeatherCatV1.15B25,2013-09-11 02:50:00,
2013-09-10 22:55:00,72.2,69.4,30.07,SE,125,0.0,1.0,91,0.00,,,0.00,WeatherCatV1.15B25,2013-09-11 02:55:00,
2013-09-10 23:00:00,72.1,69.3,30.07,ESE,117,0.0,1.0,91,0.00,,,0.00,WeatherCatV1.15B25,2013-09-11 03:00:00,
2013-09-10 23:05:00,72.1,69.3,30.07,ESE,120,2.0,3.0,91,0.00,,,0.00,WeatherCatV1.15B25,2013-09-11 03:05:00,
2013-09-10 23:10:00,72.1,69.3,30.07,SE,124,0.0,0.0,91,0.00,,,0.00,WeatherCatV1.15B25,2013-09-11 03:10:00,
2013-09-10 23:15:00,72.1,69.3,30.07,ESE,118,0.0,1.0,91,0.00,,,0.00,WeatherCatV1.15B25,2013-09-11 03:15:00,
2013-09-10 23:20:00,71.9,69.1,30.07,ESE,118,0.0,3.0,91,0.00,,,0.00,WeatherCatV1.15B25,2013-09-11 03:20:00,
2013-09-10 23:25:00,71.8,69.3,30.07,ESE,118,0.0,0.0,92,0.00,,,0.00,WeatherCatV1.15B25,2013-09-11 03:25:00,
2013-09-10 23:30:00,71.7,69.2,30.06,ESE,118,0.0,0.0,92,0.00,,,0.00,WeatherCatV1.15B25,2013-09-11 03:30:00,
2013-09-10 23:35:00,71.5,69.0,30.06,ESE,115,0.0,0.0,92,0.00,,,0.00,WeatherCatV1.15B25,2013-09-11 03:35:00,
2013-09-10 23:40:00,71.3,68.8,30.06,ESE,115,0.0,0.0,92,0.00,,,0.00,WeatherCatV1.15B25,2013-09-11 03:40:00,
2013-09-10 23:45:00,71.1,69.0,30.06,ESE,115,0.0,0.0,93,0.00,,,0.00,WeatherCatV1.15B25,2013-09-11 03:45:00,
2013-09-10 23:50:00,70.9,68.8,30.06,ESE,115,0.0,0.0,93,0.00,,,0.00,WeatherCatV1.15B25,2013-09-11 03:50:00,
2013-09-10 23:55:00,70.8,68.7,30.06,ESE,115,0.0,0.0,93,0.00,,,0.00,WeatherCatV1.15B25,2013-09-11 03:55:00,